| time (UTC) | temp C | wind direction | speed KPH | gust KPH | rain 1hr cm | rain 24hr cm | rain mn cm | humidity % | barometer mb |
| 20260904223519 | 13 | 225 | 8.0 | 14.5 | 0.00 | 0.08 | 0.08 | 83 | 1021.3 |
| 20260904222541 | 13 | 225 | 9.7 | 17.7 | 0.00 | 0.08 | 0.08 | 83 | 1021.5 |
| 20260904221517 | 13 | 225 | 8.0 | 14.5 | 0.00 | 0.08 | 0.08 | 83 | 1021.5 |
| 20260904220540 | 13 | 225 | 8.0 | 12.9 | 0.00 | 0.08 | 0.08 | 83 | 1021.5 |
| 20260904215519 | 13 | 225 | 6.4 | 14.5 | 0.00 | 0.08 | 0.08 | 83 | 1021.4 |
| 20260904214523 | 13 | 225 | 6.4 | 12.9 | 0.00 | 0.08 | 0.08 | 83 | 1021.2 |
| 20260904213524 | 13 | 225 | 6.4 | 9.7 | 0.00 | 0.08 | 0.08 | 83 | 1020.9 |
| 20260904212519 | 13 | 225 | 4.8 | 9.7 | 0.00 | 0.08 | 0.08 | 83 | 1020.9 |
| 20260904211519 | 13 | 225 | 6.4 | 11.3 | 0.00 | 0.08 | 0.08 | 83 | 1021.0 |
| 20260904210519 | 13 | 225 | 6.4 | 9.7 | 0.00 | 0.08 | 0.08 | 82 | 1021.0 |
| 20260904205520 | 13 | 225 | 4.8 | 9.7 | 0.00 | 0.08 | 0.08 | 82 | 1021.0 |
| 20260904204517 | 13 | 225 | 6.4 | 11.3 | 0.00 | 0.08 | 0.08 | 82 | 1020.9 |
| 20260904203542 | 13 | 225 | 6.4 | 11.3 | 0.00 | 0.08 | 0.08 | 81 | 1020.9 |
| 20260904202559 | 14 | 225 | 6.4 | 11.3 | 0.00 | 0.08 | 0.08 | 81 | 1020.9 |
| 20260904201518 | 14 | 225 | 4.8 | 8.0 | 0.00 | 0.08 | 0.08 | 80 | 1020.9 |
| 20260904200618 | 14 | 225 | 4.8 | 9.7 | 0.00 | 0.08 | 0.08 | 79 | 1020.6 |
| 20260904195520 | 15 | 225 | 4.8 | 9.7 | 0.00 | 0.08 | 0.08 | 78 | 1020.6 |
| 20260904194518 | 15 | 225 | 4.8 | 9.7 | 0.00 | 0.08 | 0.08 | 77 | 1020.5 |
| 20260904193522 | 15 | 225 | 6.4 | 11.3 | 0.00 | 0.08 | 0.08 | 76 | 1020.3 |
| 20260904192620 | 16 | 225 | 6.4 | 9.7 | 0.00 | 0.08 | 0.08 | 75 | 1020.4 |
| 20260904191520 | 16 | 248 | 4.8 | 11.3 | 0.00 | 0.08 | 0.08 | 74 | 1020.3 |
| 20260904190520 | 16 | 248 | 8.0 | 17.7 | 0.00 | 0.08 | 0.08 | 73 | 1020.2 |
| 20260904185522 | 16 | 248 | 6.4 | 16.1 | 0.00 | 0.08 | 0.08 | 72 | 1020.2 |
| 20260904184520 | 16 | 248 | 9.7 | 19.3 | 0.00 | 0.08 | 0.08 | 72 | 1020.1 |
| 20260904183519 | 17 | 270 | 8.0 | 22.5 | 0.00 | 0.08 | 0.08 | 71 | 1020.0 |
| 20260904182520 | 17 | 248 | 9.7 | 19.3 | 0.00 | 0.08 | 0.08 | 72 | 1019.8 |
| 20260904181524 | 17 | 248 | 11.3 | 20.9 | 0.00 | 0.08 | 0.08 | 72 | 1019.6 |
| 20260904180520 | 17 | 248 | 9.7 | 24.1 | 0.00 | 0.08 | 0.08 | 72 | 1019.7 |
| 20260904175520 | 17 | 225 | 9.7 | 24.1 | 0.00 | 0.08 | 0.08 | 72 | 1019.7 |
| 20260904174601 | 17 | 270 | 8.0 | 14.5 | 0.00 | 0.08 | 0.08 | 71 | 1019.6 |
| 20260904173543 | 17 | 270 | 9.7 | 20.9 | 0.00 | 0.08 | 0.08 | 71 | 1019.5 |
| 20260904172520 | 17 | 248 | 9.7 | 25.7 | 0.00 | 0.08 | 0.08 | 71 | 1019.3 |
| 20260904171619 | 17 | 225 | 9.7 | 17.7 | 0.00 | 0.08 | 0.08 | 70 | 1019.4 |
| 20260904170518 | 17 | 248 | 11.3 | 22.5 | 0.00 | 0.08 | 0.08 | 69 | 1019.6 |
| 20260904165520 | 17 | 248 | 16.1 | 27.4 | 0.00 | 0.08 | 0.08 | 68 | 1019.3 |
| 20260904164520 | 17 | 248 | 11.3 | 22.5 | 0.00 | 0.08 | 0.08 | 68 | 1019.2 |
| 20260904163519 | 17 | 248 | 12.9 | 25.7 | 0.00 | 0.08 | 0.08 | 68 | 1019.0 |
| 20260904162541 | 18 | 248 | 12.9 | 24.1 | 0.00 | 0.08 | 0.08 | 67 | 1019.0 |
| 20260904161521 | 18 | 270 | 11.3 | 24.1 | 0.00 | 0.08 | 0.08 | 65 | 1019.0 |
| 20260904160519 | 18 | 248 | 11.3 | 20.9 | 0.00 | 0.08 | 0.08 | 63 | 1019.2 |
| 20260904155518 | 18 | 248 | 9.7 | 17.7 | 0.00 | 0.08 | 0.08 | 63 | 1019.3 |
| 20260904154519 | 18 | 248 | 11.3 | 20.9 | 0.00 | 0.08 | 0.08 | 63 | 1019.1 |
| 20260904153519 | 18 | 248 | 12.9 | 22.5 | 0.00 | 0.08 | 0.08 | 62 | 1019.1 |
| 20260904152521 | 18 | 248 | 11.3 | 20.9 | 0.00 | 0.08 | 0.08 | 63 | 1018.8 |
| 20260904151520 | 18 | 270 | 11.3 | 20.9 | 0.00 | 0.08 | 0.08 | 64 | 1019.0 |
| 20260904150517 | 18 | 248 | 11.3 | 22.5 | 0.00 | 0.08 | 0.08 | 62 | 1019.0 |
| 20260904145521 | 19 | 248 | 14.5 | 25.7 | 0.00 | 0.08 | 0.08 | 61 | 1018.7 |
| 20260904144559 | 19 | 248 | 11.3 | 19.3 | 0.00 | 0.08 | 0.08 | 61 | 1018.7 |
| 20260904143521 | 19 | 270 | 16.1 | 27.4 | 0.00 | 0.08 | 0.08 | 62 | 1018.6 |
| 20260904142520 | 19 | 270 | 12.9 | 22.5 | 0.00 | 0.08 | 0.08 | 61 | 1018.6 |
| 20260904141518 | 18 | 270 | 16.1 | 25.7 | 0.00 | 0.08 | 0.08 | 62 | 1018.6 |
| 20260904140519 | 18 | 270 | 14.5 | 27.4 | 0.00 | 0.08 | 0.08 | 63 | 1018.5 |
| 20260904135519 | 18 | 270 | 12.9 | 25.7 | 0.00 | 0.08 | 0.08 | 61 | 1018.3 |
| 20260904134520 | 18 | 270 | 12.9 | 25.7 | 0.00 | 0.08 | 0.08 | 60 | 1018.3 |
| 20260904133518 | 19 | 270 | 14.5 | 29.0 | 0.00 | 0.08 | 0.08 | 60 | 1018.3 |
| 20260904132516 | 18 | 270 | 14.5 | 27.4 | 0.00 | 0.08 | 0.08 | 63 | 1018.1 |
| 20260904131516 | 19 | 270 | 8.0 | 22.5 | 0.00 | 0.08 | 0.08 | 64 | 1017.9 |
| 20260904130519 | 19 | 270 | 8.0 | 20.9 | 0.00 | 0.08 | 0.08 | 65 | 1017.9 |
| 20260904125518 | 19 | 293 | 12.9 | 25.7 | 0.00 | 0.08 | 0.08 | 63 | 1018.0 |
| 20260904124520 | 19 | 248 | 8.0 | 16.1 | 0.00 | 0.08 | 0.08 | 63 | 1017.5 |
| 20260904123521 | 19 | 270 | 12.9 | 24.1 | 0.00 | 0.08 | 0.08 | 60 | 1017.5 |
| 20260904122520 | 19 | 270 | 8.0 | 17.7 | 0.00 | 0.08 | 0.08 | 65 | 1017.6 |
| 20260904121517 | 19 | 248 | 14.5 | 29.0 | 0.00 | 0.08 | 0.08 | 64 | 1017.5 |
| 20260904120521 | 20 | 248 | 14.5 | 29.0 | 0.00 | 0.08 | 0.08 | 65 | 1017.4 |
| 20260904115517 | 20 | 270 | 17.7 | 32.2 | 0.00 | 0.08 | 0.08 | 66 | 1017.4 |
| 20260904114519 | 20 | 270 | 16.1 | 30.6 | 0.00 | 0.08 | 0.08 | 67 | 1017.1 |
| 20260904113522 | 20 | 270 | 11.3 | 25.7 | 0.00 | 0.08 | 0.08 | 68 | 1017.0 |
| 20260904112516 | 20 | 270 | 14.5 | 27.4 | 0.00 | 0.08 | 0.08 | 68 | 1017.0 |
| 20260904111523 | 20 | 270 | 17.7 | 32.2 | 0.00 | 0.08 | 0.08 | 69 | 1017.0 |
| 20260904110518 | 20 | 270 | 19.3 | 29.0 | 0.00 | 0.08 | 0.08 | 71 | 1016.5 |
| 20260904105518 | 20 | 248 | 17.7 | 32.2 | 0.00 | 0.08 | 0.08 | 69 | 1016.6 |
| 20260904104516 | 20 | 248 | 16.1 | 29.0 | 0.00 | 0.08 | 0.08 | 70 | 1016.5 |
| 20260904103518 | 20 | 248 | 12.9 | 24.1 | 0.00 | 0.08 | 0.08 | 72 | 1016.2 |
| 20260904102518 | 19 | 248 | 9.7 | 24.1 | 0.00 | 0.08 | 0.08 | 75 | 1016.2 |
| 20260904101520 | 19 | 270 | 14.5 | 29.0 | 0.00 | 0.08 | 0.08 | 76 | 1016.2 |
| 20260904100519 | 19 | 248 | 14.5 | 27.4 | 0.00 | 0.08 | 0.08 | 75 | 1016.1 |
| 20260904095518 | 19 | 248 | 12.9 | 25.7 | 0.00 | 0.08 | 0.08 | 74 | 1016.1 |
| 20260904094520 | 20 | 248 | 14.5 | 27.4 | 0.00 | 0.08 | 0.08 | 73 | 1016.3 |
| 20260904093601 | 19 | 248 | 12.9 | 24.1 | 0.00 | 0.08 | 0.08 | 76 | 1016.0 |
| 20260904092519 | 19 | 248 | 9.7 | 22.5 | 0.00 | 0.08 | 0.08 | 76 | 1016.1 |
| 20260904091524 | 20 | 248 | 14.5 | 32.2 | 0.00 | 0.08 | 0.08 | 75 | 1015.9 |
| 20260904090539 | 19 | 270 | 14.5 | 30.6 | 0.00 | 0.08 | 0.08 | 77 | 1015.4 |
| 20260904085542 | 18 | 270 | 12.9 | 22.5 | 0.00 | 0.08 | 0.08 | 81 | 1015.4 |
| 20260904084523 | 18 | 270 | 11.3 | 24.1 | 0.00 | 0.08 | 0.08 | 83 | 1015.3 |
| 20260904083521 | 18 | 270 | 11.3 | 22.5 | 0.00 | 0.08 | 0.08 | 84 | 1015.0 |
| 20260904082523 | 18 | 270 | 12.9 | 22.5 | 0.00 | 0.08 | 0.08 | 85 | 1015.0 |
| 20260904081521 | 17 | 248 | 14.5 | 24.1 | 0.00 | 0.08 | 0.08 | 86 | 1014.9 |
| 20260904080544 | 17 | 248 | 12.9 | 22.5 | 0.00 | 0.08 | 0.08 | 87 | 1014.8 |
| 20260904075521 | 17 | 248 | 12.9 | 20.9 | 0.00 | 0.08 | 0.08 | 87 | 1014.6 |
| 20260904074519 | 17 | 248 | 9.7 | 16.1 | 0.00 | 0.08 | 0.08 | 88 | 1014.6 |
| 20260904073522 | 17 | 225 | 8.0 | 17.7 | 0.00 | 0.08 | 0.08 | 88 | 1014.6 |
| 20260904072520 | 17 | 248 | 11.3 | 20.9 | 0.00 | 0.08 | 0.08 | 88 | 1014.5 |
| 20260904071521 | 17 | 248 | 9.7 | 19.3 | 0.00 | 0.08 | 0.08 | 88 | 1014.3 |
| 20260904070526 | 17 | 248 | 12.9 | 24.1 | 0.00 | 0.08 | 0.08 | 88 | 1014.4 |
| 20260904065524 | 17 | 225 | 6.4 | 14.5 | 0.00 | 0.08 | 0.08 | 88 | 1014.4 |
| 20260904064519 | 17 | 248 | 9.7 | 17.7 | 0.08 | 0.08 | 0.08 | 88 | 1014.3 |
| 20260904063519 | 17 | 248 | 8.0 | 16.1 | 0.08 | 0.08 | 0.08 | 88 | 1014.1 |
| 20260904062541 | 17 | 270 | 11.3 | 25.7 | 0.08 | 0.08 | 0.08 | 87 | 1014.2 |
| 20260904061543 | 17 | 248 | 12.9 | 22.5 | 0.08 | 0.08 | 0.08 | 87 | 1014.0 |
| 20260904060540 | 18 | 270 | 11.3 | 22.5 | 0.08 | 0.08 | 0.08 | 87 | 1013.7 |
| 20260904055518 | 18 | 270 | 12.9 | 27.4 | 0.08 | 0.08 | 0.08 | 87 | 1013.5 |
| 20260904054519 | 19 | 248 | 16.1 | 32.2 | 0.00 | 0.00 | 0.00 | 89 | 1012.9 |
| 20260904053522 | 19 | 248 | 14.5 | 27.4 | 0.00 | 0.00 | 0.00 | 88 | 1012.7 |
| 20260904052519 | 19 | 248 | 17.7 | 35.4 | 0.00 | 0.00 | 0.00 | 87 | 1012.4 |
| 20260904051539 | 20 | 225 | 14.5 | 27.4 | 0.00 | 0.00 | 0.00 | 86 | 1012.7 |
| 20260904050524 | 20 | 248 | 17.7 | 32.2 | 0.00 | 0.00 | 0.00 | 86 | 1012.5 |
| 20260904045558 | 20 | 248 | 16.1 | 32.2 | 0.00 | 0.00 | 0.00 | 85 | 1012.5 |
| 20260904044538 | 20 | 225 | 16.1 | 29.0 | 0.00 | 0.00 | 0.00 | 84 | 1012.4 |
| 20260904043519 | 20 | 225 | 17.7 | 30.6 | 0.00 | 0.00 | 0.00 | 84 | 1012.6 |
| 20260904042523 | 20 | 225 | 12.9 | 27.4 | 0.00 | 0.00 | 0.00 | 84 | 1012.5 |
| 20260904041518 | 20 | 225 | 12.9 | 24.1 | 0.00 | 0.00 | 0.00 | 85 | 1012.5 |
| 20260904040518 | 20 | 225 | 9.7 | 20.9 | 0.00 | 0.00 | 0.00 | 85 | 1012.6 |
| 20260904035519 | 20 | 225 | 11.3 | 20.9 | 0.00 | 0.00 | 0.00 | 84 | 1012.7 |
| 20260904034539 | 20 | 225 | 14.5 | 32.2 | 0.00 | 0.00 | 0.00 | 84 | 1012.5 |
| 20260904033538 | 20 | 225 | 17.7 | 35.4 | 0.00 | 0.00 | 0.00 | 84 | 1012.5 |
| 20260904032517 | 20 | 225 | 14.5 | 30.6 | 0.00 | 0.00 | 0.00 | 84 | 1012.8 |
| 20260904031517 | 20 | 225 | 17.7 | 35.4 | 0.00 | 0.00 | 0.00 | 84 | 1012.9 |
| 20260904030520 | 20 | 225 | 16.1 | 38.6 | 0.00 | 0.00 | 0.00 | 85 | 1012.9 |
| 20260904025523 | 20 | 225 | 16.1 | 27.4 | 0.00 | 0.00 | 0.00 | 85 | 1013.3 |
| 20260904024523 | 20 | 225 | 16.1 | 27.4 | 0.00 | 0.00 | 0.00 | 85 | 1013.6 |
| 20260904023519 | 20 | 225 | 14.5 | 24.1 | 0.00 | 0.00 | 0.00 | 86 | 1013.8 |
| 20260904022541 | 20 | 225 | 12.9 | 25.7 | 0.00 | 0.00 | 0.00 | 86 | 1013.9 |
| 20260904021520 | 20 | 225 | 12.9 | 24.1 | 0.00 | 0.00 | 0.00 | 85 | 1014.0 |
| 20260904020522 | 20 | 225 | 16.1 | 30.6 | 0.00 | 0.00 | 0.00 | 85 | 1014.0 |
| 20260904015542 | 20 | 225 | 19.3 | 35.4 | 0.00 | 0.00 | 0.00 | 84 | 1013.9 |
| 20260904014521 | 20 | 225 | 17.7 | 32.2 | 0.00 | 0.00 | 0.00 | 83 | 1014.1 |
| 20260904013520 | 20 | 225 | 16.1 | 33.8 | 0.00 | 0.00 | 0.00 | 83 | 1013.9 |
| 20260904012520 | 20 | 225 | 16.1 | 33.8 | 0.00 | 0.00 | 0.00 | 83 | 1013.9 |
| 20260904011522 | 20 | 225 | 16.1 | 35.4 | 0.00 | 0.00 | 0.00 | 84 | 1014.0 |
| 20260904010518 | 20 | 225 | 16.1 | 32.2 | 0.00 | 0.00 | 0.00 | 84 | 1014.1 |
| 20260904005540 | 20 | 225 | 16.1 | 27.4 | 0.00 | 0.00 | 0.00 | 84 | 1014.4 |
| 20260904004541 | 20 | 225 | 14.5 | 27.4 | 0.00 | 0.00 | 0.00 | 84 | 1014.5 |
| 20260904003523 | 20 | 225 | 16.1 | 29.0 | 0.00 | 0.00 | 0.00 | 83 | 1014.6 |
| 20260904002520 | 20 | 225 | 16.1 | 27.4 | 0.00 | 0.00 | 0.00 | 82 | 1014.5 |
| 20260904001521 | 20 | 225 | 17.7 | 35.4 | 0.00 | 0.00 | 0.00 | 82 | 1014.6 |
| 20260904000520 | 20 | 225 | 12.9 | 33.8 | 0.00 | 0.00 | 0.00 | 82 | 1014.8 |
| 20260903235520 | 20 | 225 | 12.9 | 24.1 | 0.00 | 0.00 | 0.00 | 81 | 1014.9 |
| 20260903234542 | 20 | 203 | 12.9 | 32.2 | 0.00 | 0.00 | 0.00 | 81 | 1015.0 |
| 20260903233521 | 20 | 225 | 14.5 | 29.0 | 0.00 | 0.00 | 0.00 | 80 | 1015.2 |
| 20260903232518 | 20 | 225 | 14.5 | 25.7 | 0.00 | 0.00 | 0.00 | 80 | 1015.3 |
| 20260903231518 | 20 | 225 | 12.9 | 24.1 | 0.00 | 0.00 | 0.00 | 79 | 1015.3 |
| 20260903230540 | 20 | 225 | 19.3 | 37.0 | 0.00 | 0.00 | 0.00 | 79 | 1015.5 |
| 20260903225537 | 20 | 225 | 14.5 | 25.7 | 0.00 | 0.00 | 0.00 | 79 | 1015.5 |
| 20260903224542 | 20 | 225 | 14.5 | 25.7 | 0.00 | 0.00 | 0.00 | 80 | 1015.5 |